User: anonymous   Login
Location: Ballingbuur
(53.0000°N, 5.7667°E)
Time: 03:57:19
(UTC+00:00)
Language:

CZ-4C R/B - Orbit

View from above orbital plane
View from above orbital plane
View from above satellite
View from above satellite

Ground track
Ground track

The orbit data is extracted from the following two-line orbital elements,

1 36416U 10009D   21059.47742069 -.00000107  00000-0  21652-5 0  9996
2 36416  63.4195 232.4959 0520285 355.4794   4.1637 13.69587565549412
Epoch (UTC): 28 February 2021 11:27:29
Eccentricity: 0.0520285
inclination: 63.4195°
perigee height: 617 km
apogee height: 1385 km
right ascension of ascending node: 232.4959°
argument of perigee: 355.4794°
revolutions per day: 13.69587565
mean anomaly at epoch: 4.1637°
orbit number at epoch: 54941

The dashed part of the orbit path shows where the satellite is in the earth's shadow,  

DLR